owner,sensor,date,latitude,longitude,vertical_datum,wind_speed,wind_to_direction,wind_speed_of_gust,qcFlag 
LUMCON,ioos:station:LUMCON:wisl1:1,2019-04-01T00:00:00Z,29.1144,-90.1840,1.0,7.7,1.0,11.1,'1111122,1111122,1111122' 
LUMCON,ioos:station:LUMCON:wisl1:1,2019-04-01T00:15:00Z,29.1144,-90.1840,1.0,10.9,343.0,11.0,'1111122,1111122,1111122' 
LUMCON,ioos:station:LUMCON:wisl1:1,2019-04-01T00:30:00Z,29.1144,-90.1840,1.0,7.2,346.0,11.1,'1111122,1111122,1111122' 
LUMCON,ioos:station:LUMCON:wisl1:1,2019-04-01T00:45:00Z,29.1144,-90.1840,1.0,7.7,335.0,11.1,'1111122,1111122,1111122' 
LUMCON,ioos:station:LUMCON:wisl1:1,2019-04-01T01:00:00Z,29.1144,-90.1840,1.0,7.8,340.0,11.1,'1111122,1111122,1111122' 
LUMCON,ioos:station:LUMCON:wisl1:1,2019-04-01T01:15:00Z,29.1144,-90.1840,1.0,7.2,349.0,11.3,'1111122,1111122,1111122' 
LUMCON,ioos:station:LUMCON:wisl1:1,2019-04-01T01:30:00Z,29.1144,-90.1840,1.0,8.5,346.0,11.4,'1111122,1111122,1111122' 
LUMCON,ioos:station:LUMCON:wisl1:1,2019-04-01T01:45:00Z,29.1144,-90.1840,1.0,6.8,336.0,11.6,'1111122,1111122,1111122' 
LUMCON,ioos:station:LUMCON:wisl1:1,2019-04-01T02:00:00Z,29.1144,-90.1840,1.0,5.4,340.0,11.8,'1111122,1111122,1111122' 
LUMCON,ioos:station:LUMCON:wisl1:1,2019-04-01T02:15:00Z,29.1144,-90.1840,1.0,7.5,340.0,11.8,'1111122,1111122,1111122' 
LUMCON,ioos:station:LUMCON:wisl1:1,2019-04-01T02:30:00Z,29.1144,-90.1840,1.0,6.3,332.0,11.8,'1111122,1111122,1111122' 
LUMCON,ioos:station:LUMCON:wisl1:1,2019-04-01T02:45:00Z,29.1144,-90.1840,1.0,6.4,324.0,11.9,'1111122,1111122,1111122' 
LUMCON,ioos:station:LUMCON:wisl1:1,2019-04-01T03:00:00Z,29.1144,-90.1840,1.0,7.1,346.0,12.0,'1111122,1111122,1111122' 
LUMCON,ioos:station:LUMCON:wisl1:1,2019-04-01T03:15:00Z,29.1144,-90.1840,1.0,6.9,354.0,12.0,'1111122,1111122,1111122' 
LUMCON,ioos:station:LUMCON:wisl1:1,2019-04-01T03:30:00Z,29.1144,-90.1840,1.0,5.6,354.0,12.1,'1111122,1111122,1111122' 
LUMCON,ioos:station:LUMCON:wisl1:1,2019-04-01T03:45:00Z,29.1144,-90.1840,1.0,7.8,340.0,11.9,'1111122,1111122,1111122' 
LUMCON,ioos:station:LUMCON:wisl1:1,2019-04-01T04:00:00Z,29.1144,-90.1840,1.0,7.0,353.0,11.9,'1111122,1111122,1111122' 
LUMCON,ioos:station:LUMCON:wisl1:1,2019-04-01T04:15:00Z,29.1144,-90.1840,1.0,7.5,358.0,12.2,'1111122,1111122,1111122' 
LUMCON,ioos:station:LUMCON:wisl1:1,2019-04-01T04:30:00Z,29.1144,-90.1840,1.0,8.7,353.0,12.1,'1111122,1111122,1111122' 
LUMCON,ioos:station:LUMCON:wisl1:1,2019-04-01T04:45:00Z,29.1144,-90.1840,1.0,8.9,355.0,12.2,'1111122,1111122,1111122' 
LUMCON,ioos:station:LUMCON:wisl1:1,2019-04-01T05:00:00Z,29.1144,-90.1840,1.0,9.3,358.0,12.1,'1111122,1111122,1111122' 
LUMCON,ioos:station:LUMCON:wisl1:1,2019-04-01T05:15:00Z,29.1144,-90.1840,1.0,7.4,358.0,12.1,'1111122,1111122,1111122' 
LUMCON,ioos:station:LUMCON:wisl1:1,2019-04-01T05:30:00Z,29.1144,-90.1840,1.0,8.2,6.0,12.1,'1111122,1111122,1111122' 
LUMCON,ioos:station:LUMCON:wisl1:1,2019-04-01T05:45:00Z,29.1144,-90.1840,1.0,7.3,13.0,11.9,'1111122,1111122,1111122' 
LUMCON,ioos:station:LUMCON:wisl1:1,2019-04-01T06:00:00Z,29.1144,-90.1840,1.0,8.8,12.0,11.8,'1111122,1111122,1111122' 
LUMCON,ioos:station:LUMCON:wisl1:1,2019-04-01T06:15:00Z,29.1144,-90.1840,1.0,7.0,17.0,11.9,'1111122,1111122,1111122' 
LUMCON,ioos:station:LUMCON:wisl1:1,2019-04-01T06:30:00Z,29.1144,-90.1840,1.0,8.7,16.0,11.7,'1111122,1111122,1111122' 
LUMCON,ioos:station:LUMCON:wisl1:1,2019-04-01T06:45:00Z,29.1144,-90.1840,1.0,9.6,23.0,11.8,'1111122,1111122,1111122' 
LUMCON,ioos:station:LUMCON:wisl1:1,2019-04-01T07:00:00Z,29.1144,-90.1840,1.0,8.6,11.0,11.7,'1111122,1111122,1111122' 
LUMCON,ioos:station:LUMCON:wisl1:1,2019-04-01T07:15:00Z,29.1144,-90.1840,1.0,8.4,25.0,11.8,'1111122,1111122,1111122' 
LUMCON,ioos:station:LUMCON:wisl1:1,2019-04-01T07:30:00Z,29.1144,-90.1840,1.0,7.0,16.0,11.9,'1111122,1111122,1111122' 
LUMCON,ioos:station:LUMCON:wisl1:1,2019-04-01T07:45:00Z,29.1144,-90.1840,1.0,7.6,17.0,12.1,'1111122,1111122,1111122' 
LUMCON,ioos:station:LUMCON:wisl1:1,2019-04-01T08:00:00Z,29.1144,-90.1840,1.0,6.9,10.0,12.0,'1111122,1111122,1111122' 
LUMCON,ioos:station:LUMCON:wisl1:1,2019-04-01T08:15:00Z,29.1144,-90.1840,1.0,6.9,10.0,12.0,'1111122,1111122,1111122' 
LUMCON,ioos:station:LUMCON:wisl1:1,2019-04-01T08:30:00Z,29.1144,-90.1840,1.0,5.6,7.0,12.1,'1111122,1111122,1111122' 
LUMCON,ioos:station:LUMCON:wisl1:1,2019-04-01T08:45:00Z,29.1144,-90.1840,1.0,5.6,7.0,12.2,'1111122,1111122,1111122' 
LUMCON,ioos:station:LUMCON:wisl1:1,2019-04-01T09:00:00Z,29.1144,-90.1840,1.0,7.5,11.0,12.2,'1111122,1111122,1111122' 
LUMCON,ioos:station:LUMCON:wisl1:1,2019-04-01T09:15:00Z,29.1144,-90.1840,1.0,6.1,14.0,12.2,'1111122,1111122,1111122' 
LUMCON,ioos:station:LUMCON:wisl1:1,2019-04-01T09:30:00Z,29.1144,-90.1840,1.0,6.1,20.0,12.2,'1111122,1111122,1111122' 
LUMCON,ioos:station:LUMCON:wisl1:1,2019-04-01T09:45:00Z,29.1144,-90.1840,1.0,7.3,11.0,12.2,'1111122,1111122,1111122' 
LUMCON,ioos:station:LUMCON:wisl1:1,2019-04-01T10:00:00Z,29.1144,-90.1840,1.0,7.2,16.0,12.1,'1111122,1111122,1111122' 
LUMCON,ioos:station:LUMCON:wisl1:1,2019-04-01T10:15:00Z,29.1144,-90.1840,1.0,7.8,14.0,12.2,'1111122,1111122,1111122' 
LUMCON,ioos:station:LUMCON:wisl1:1,2019-04-01T10:30:00Z,29.1144,-90.1840,1.0,7.2,19.0,12.3,'1111122,1111122,1111122' 
LUMCON,ioos:station:LUMCON:wisl1:1,2019-04-01T10:45:00Z,29.1144,-90.1840,1.0,6.2,12.0,12.3,'1111122,1111122,1111122' 
LUMCON,ioos:station:LUMCON:wisl1:1,2019-04-01T11:00:00Z,29.1144,-90.1840,1.0,7.0,19.0,12.3,'1111122,1111122,1111122' 
LUMCON,ioos:station:LUMCON:wisl1:1,2019-04-01T11:15:00Z,29.1144,-90.1840,1.0,6.1,16.0,12.2,'1111122,1111122,1111122' 
LUMCON,ioos:station:LUMCON:wisl1:1,2019-04-01T11:30:00Z,29.1144,-90.1840,1.0,5.4,17.0,12.2,'1111122,1111122,1111122' 
LUMCON,ioos:station:LUMCON:wisl1:1,2019-04-01T11:45:00Z,29.1144,-90.1840,1.0,7.2,14.0,12.1,'1111122,1111122,1111122' 
LUMCON,ioos:station:LUMCON:wisl1:1,2019-04-01T12:00:00Z,29.1144,-90.1840,1.0,6.9,11.0,12.1,'1111122,1111122,1111122' 
LUMCON,ioos:station:LUMCON:wisl1:1,2019-04-01T12:15:00Z,29.1144,-90.1840,1.0,5.5,16.0,12.0,'1111122,1111122,1111122' 
LUMCON,ioos:station:LUMCON:wisl1:1,2019-04-01T12:30:00Z,29.1144,-90.1840,1.0,6.9,7.0,12.0,'1111122,1111122,1111122' 
LUMCON,ioos:station:LUMCON:wisl1:1,2019-04-01T12:45:00Z,29.1144,-90.1840,1.0,5.1,11.0,11.9,'1111122,1111122,1111122' 
LUMCON,ioos:station:LUMCON:wisl1:1,2019-04-01T13:00:00Z,29.1144,-90.1840,1.0,6.5,6.0,12.2,'1111122,1111122,1111122' 
LUMCON,ioos:station:LUMCON:wisl1:1,2019-04-01T13:15:00Z,29.1144,-90.1840,1.0,6.6,13.0,12.3,'1111122,1111122,1111122' 
LUMCON,ioos:station:LUMCON:wisl1:1,2019-04-01T13:30:00Z,29.1144,-90.1840,1.0,6.2,11.0,12.5,'1111122,1111122,1111122' 
LUMCON,ioos:station:LUMCON:wisl1:1,2019-04-01T13:45:00Z,29.1144,-90.1840,1.0,6.4,356.0,12.5,'1111122,1111122,1111122' 
LUMCON,ioos:station:LUMCON:wisl1:1,2019-04-01T14:00:00Z,29.1144,-90.1840,1.0,4.6,8.0,12.8,'1111122,1111122,1111122' 
LUMCON,ioos:station:LUMCON:wisl1:1,2019-04-01T14:15:00Z,29.1144,-90.1840,1.0,4.2,3.0,13.1,'1111122,1111122,1111122' 
LUMCON,ioos:station:LUMCON:wisl1:1,2019-04-01T14:30:00Z,29.1144,-90.1840,1.0,6.3,6.0,13.0,'1111122,1111122,1111122' 
LUMCON,ioos:station:LUMCON:wisl1:1,2019-04-01T14:45:00Z,29.1144,-90.1840,1.0,5.5,6.0,13.2,'1111122,1111122,1111122' 
LUMCON,ioos:station:LUMCON:wisl1:1,2019-04-01T15:00:00Z,29.1144,-90.1840,1.0,7.5,29.0,13.4,'1111122,1111122,1111122' 
LUMCON,ioos:station:LUMCON:wisl1:1,2019-04-01T15:15:00Z,29.1144,-90.1840,1.0,6.4,10.0,13.5,'1111122,1111122,1111122' 
LUMCON,ioos:station:LUMCON:wisl1:1,2019-04-01T15:30:00Z,29.1144,-90.1840,1.0,6.9,27.0,13.6,'1111122,1111122,1111122' 
LUMCON,ioos:station:LUMCON:wisl1:1,2019-04-01T15:45:00Z,29.1144,-90.1840,1.0,4.2,18.0,13.6,'1111122,1111122,1111122' 
LUMCON,ioos:station:LUMCON:wisl1:1,2019-04-01T16:00:00Z,29.1144,-90.1840,1.0,5.3,28.0,14.1,'1111122,1111122,1111122' 
LUMCON,ioos:station:LUMCON:wisl1:1,2019-04-01T16:15:00Z,29.1144,-90.1840,1.0,5.2,24.0,14.1,'1111122,1111122,1111122' 
LUMCON,ioos:station:LUMCON:wisl1:1,2019-04-01T16:30:00Z,29.1144,-90.1840,1.0,5.0,35.0,14.5,'1111122,1111122,1111122' 
LUMCON,ioos:station:LUMCON:wisl1:1,2019-04-01T16:45:00Z,29.1144,-90.1840,1.0,5.2,34.0,14.4,'1111122,1111122,1111122' 
LUMCON,ioos:station:LUMCON:wisl1:1,2019-04-01T17:00:00Z,29.1144,-90.1840,1.0,5.1,19.0,14.3,'1111122,1111122,1111122' 
LUMCON,ioos:station:LUMCON:wisl1:1,2019-04-01T17:15:00Z,29.1144,-90.1840,1.0,6.2,354.0,14.2,'1111122,1111122,1111122' 
LUMCON,ioos:station:LUMCON:wisl1:1,2019-04-01T17:30:00Z,29.1144,-90.1840,1.0,4.6,0.0,14.2,'1111122,1114422,1111122' 
LUMCON,ioos:station:LUMCON:wisl1:1,2019-04-01T17:45:00Z,29.1144,-90.1840,1.0,5.6,354.0,14.4,'1111122,1111122,1111122' 
LUMCON,ioos:station:LUMCON:wisl1:1,2019-04-01T18:00:00Z,29.1144,-90.1840,1.0,6.0,8.0,14.2,'1111122,1111122,1111122' 
LUMCON,ioos:station:LUMCON:wisl1:1,2019-04-01T18:15:00Z,29.1144,-90.1840,1.0,5.4,21.0,14.2,'1111122,1111122,1111122' 
LUMCON,ioos:station:LUMCON:wisl1:1,2019-04-01T18:30:00Z,29.1144,-90.1840,1.0,5.8,7.0,14.5,'1111122,1111122,1111122' 
LUMCON,ioos:station:LUMCON:wisl1:1,2019-04-01T18:45:00Z,29.1144,-90.1840,1.0,6.2,0.0,14.3,'1111122,1114422,1111122' 
LUMCON,ioos:station:LUMCON:wisl1:1,2019-04-01T19:00:00Z,29.1144,-90.1840,1.0,5.5,344.0,14.4,'1111122,1111122,1111122' 
LUMCON,ioos:station:LUMCON:wisl1:1,2019-04-01T19:15:00Z,29.1144,-90.1840,1.0,4.2,0.0,14.2,'1111122,1114422,1111122' 
LUMCON,ioos:station:LUMCON:wisl1:1,2019-04-01T19:30:00Z,29.1144,-90.1840,1.0,5.0,12.0,14.4,'1111122,1111122,1111122' 
LUMCON,ioos:station:LUMCON:wisl1:1,2019-04-01T19:45:00Z,29.1144,-90.1840,1.0,5.3,355.0,14.4,'1111122,1111122,1111122' 
LUMCON,ioos:station:LUMCON:wisl1:1,2019-04-01T20:00:00Z,29.1144,-90.1840,1.0,5.7,24.0,14.6,'1111122,1111122,1111122' 
LUMCON,ioos:station:LUMCON:wisl1:1,2019-04-01T20:15:00Z,29.1144,-90.1840,1.0,6.6,353.0,14.8,'1111122,1111122,1111122' 
LUMCON,ioos:station:LUMCON:wisl1:1,2019-04-01T20:30:00Z,29.1144,-90.1840,1.0,6.4,22.0,15.0,'1111122,1111122,1111122' 
LUMCON,ioos:station:LUMCON:wisl1:1,2019-04-01T20:45:00Z,29.1144,-90.1840,1.0,6.8,358.0,14.7,'1111122,1111122,1111122' 
LUMCON,ioos:station:LUMCON:wisl1:1,2019-04-01T21:00:00Z,29.1144,-90.1840,1.0,5.7,21.0,15.0,'1111122,1111122,1111122' 
LUMCON,ioos:station:LUMCON:wisl1:1,2019-04-01T21:15:00Z,29.1144,-90.1840,1.0,4.1,20.0,14.9,'1111122,1111122,1111122' 
LUMCON,ioos:station:LUMCON:wisl1:1,2019-04-01T21:30:00Z,29.1144,-90.1840,1.0,3.9,20.0,14.9,'1111122,1111122,1111122' 
LUMCON,ioos:station:LUMCON:wisl1:1,2019-04-01T21:45:00Z,29.1144,-90.1840,1.0,5.2,29.0,15.0,'1111122,1111122,1111122' 
LUMCON,ioos:station:LUMCON:wisl1:1,2019-04-01T22:00:00Z,29.1144,-90.1840,1.0,6.7,15.0,15.2,'1111122,1111122,1111122' 
LUMCON,ioos:station:LUMCON:wisl1:1,2019-04-01T22:15:00Z,29.1144,-90.1840,1.0,7.0,42.0,15.1,'1111122,1111122,1111122' 
LUMCON,ioos:station:LUMCON:wisl1:1,2019-04-01T22:30:00Z,29.1144,-90.1840,1.0,6.1,44.0,14.7,'1111122,1111122,1111122' 
LUMCON,ioos:station:LUMCON:wisl1:1,2019-04-01T22:45:00Z,29.1144,-90.1840,1.0,7.3,49.0,14.5,'1111122,1111122,1111122' 
LUMCON,ioos:station:LUMCON:wisl1:1,2019-04-01T23:00:00Z,29.1144,-90.1840,1.0,6.0,45.0,14.5,'1111122,1111122,1111122' 
LUMCON,ioos:station:LUMCON:wisl1:1,2019-04-01T23:15:00Z,29.1144,-90.1840,1.0,5.6,38.0,14.5,'1111122,1111122,1111122' 
LUMCON,ioos:station:LUMCON:wisl1:1,2019-04-01T23:30:00Z,29.1144,-90.1840,1.0,4.9,34.0,14.4,'1111122,1111122,1111122' 
LUMCON,ioos:station:LUMCON:wisl1:1,2019-04-01T23:45:00Z,29.1144,-90.1840,1.0,4.4,35.0,14.5,'1111122,1111122,1111122' 
LUMCON,ioos:station:LUMCON:wisl1:1,2019-04-02T00:00:00Z,29.1144,-90.1840,1.0,1.7,4.0,14.5,'1111122,1111122,1111122' 
LUMCON,ioos:station:LUMCON:wisl1:1,2019-04-02T00:15:00Z,29.1144,-90.1840,1.0,3.4,347.0,14.6,'1111122,1111122,1111122' 
LUMCON,ioos:station:LUMCON:wisl1:1,2019-04-02T00:30:00Z,29.1144,-90.1840,1.0,2.8,356.0,14.6,'1111122,1111122,1111122' 
LUMCON,ioos:station:LUMCON:wisl1:1,2019-04-02T00:45:00Z,29.1144,-90.1840,1.0,2.6,349.0,14.6,'1111122,1111122,1111122' 
LUMCON,ioos:station:LUMCON:wisl1:1,2019-04-02T01:00:00Z,29.1144,-90.1840,1.0,3.8,325.0,14.7,'1111122,1111122,1111122' 
LUMCON,ioos:station:LUMCON:wisl1:1,2019-04-02T01:15:00Z,29.1144,-90.1840,1.0,3.3,339.0,14.8,'1111122,1111122,1111122' 
LUMCON,ioos:station:LUMCON:wisl1:1,2019-04-02T01:30:00Z,29.1144,-90.1840,1.0,3.9,333.0,14.9,'1111122,1111122,1111122' 
LUMCON,ioos:station:LUMCON:wisl1:1,2019-04-02T01:45:00Z,29.1144,-90.1840,1.0,2.7,356.0,14.9,'1111122,1111122,1111122' 
LUMCON,ioos:station:LUMCON:wisl1:1,2019-04-02T02:00:00Z,29.1144,-90.1840,1.0,2.6,314.0,14.9,'1111122,1111122,1111122' 
LUMCON,ioos:station:LUMCON:wisl1:1,2019-04-02T02:15:00Z,29.1144,-90.1840,1.0,2.5,315.0,15.0,'1111122,1111122,1111122' 
LUMCON,ioos:station:LUMCON:wisl1:1,2019-04-02T02:30:00Z,29.1144,-90.1840,1.0,2.6,263.0,15.1,'1111122,1111122,1111122' 
LUMCON,ioos:station:LUMCON:wisl1:1,2019-04-02T02:45:00Z,29.1144,-90.1840,1.0,2.4,314.0,15.1,'1111122,1111122,1111122' 
LUMCON,ioos:station:LUMCON:wisl1:1,2019-04-02T03:00:00Z,29.1144,-90.1840,1.0,2.4,301.0,15.2,'1111122,1111122,1111122' 
LUMCON,ioos:station:LUMCON:wisl1:1,2019-04-02T03:15:00Z,29.1144,-90.1840,1.0,2.3,307.0,15.3,'1111122,1111122,1111122' 
LUMCON,ioos:station:LUMCON:wisl1:1,2019-04-02T03:30:00Z,29.1144,-90.1840,1.0,2.6,317.0,15.4,'1111122,1111122,1111122' 
LUMCON,ioos:station:LUMCON:wisl1:1,2019-04-02T03:45:00Z,29.1144,-90.1840,1.0,3.7,315.0,15.6,'1111122,1111122,1111122' 
LUMCON,ioos:station:LUMCON:wisl1:1,2019-04-02T04:00:00Z,29.1144,-90.1840,1.0,3.1,326.0,15.5,'1111122,1111122,1111122' 
LUMCON,ioos:station:LUMCON:wisl1:1,2019-04-02T04:15:00Z,29.1144,-90.1840,1.0,3.0,314.0,15.7,'1111122,1111122,1111122' 
LUMCON,ioos:station:LUMCON:wisl1:1,2019-04-02T04:30:00Z,29.1144,-90.1840,1.0,2.2,327.0,15.8,'1111122,1111122,1111122' 
LUMCON,ioos:station:LUMCON:wisl1:1,2019-04-02T04:45:00Z,29.1144,-90.1840,1.0,3.2,332.0,15.8,'1111122,1111122,1111122' 
LUMCON,ioos:station:LUMCON:wisl1:1,2019-04-02T05:00:00Z,29.1144,-90.1840,1.0,3.7,321.0,15.6,'1111122,1111122,1111122' 
LUMCON,ioos:station:LUMCON:wisl1:1,2019-04-02T05:15:00Z,29.1144,-90.1840,1.0,6.9,319.0,14.8,'1111122,1111122,1111122' 
LUMCON,ioos:station:LUMCON:wisl1:1,2019-04-02T05:30:00Z,29.1144,-90.1840,1.0,5.1,332.0,14.5,'1111122,1111122,1111122' 
LUMCON,ioos:station:LUMCON:wisl1:1,2019-04-02T05:45:00Z,29.1144,-90.1840,1.0,3.8,345.0,14.3,'1111122,1111122,1111122' 
LUMCON,ioos:station:LUMCON:wisl1:1,2019-04-02T06:00:00Z,29.1144,-90.1840,1.0,2.0,342.0,14.4,'1111122,1111122,1111122' 
LUMCON,ioos:station:LUMCON:wisl1:1,2019-04-02T06:15:00Z,29.1144,-90.1840,1.0,2.5,317.0,14.3,'1111122,1111122,1111122' 
LUMCON,ioos:station:LUMCON:wisl1:1,2019-04-02T06:30:00Z,29.1144,-90.1840,1.0,2.8,333.0,14.4,'1111122,1111122,1111122' 
LUMCON,ioos:station:LUMCON:wisl1:1,2019-04-02T06:45:00Z,29.1144,-90.1840,1.0,5.0,320.0,14.6,'1111122,1111122,1111122' 
LUMCON,ioos:station:LUMCON:wisl1:1,2019-04-02T07:00:00Z,29.1144,-90.1840,1.0,5.4,307.0,14.3,'1111122,1111122,1111122' 
LUMCON,ioos:station:LUMCON:wisl1:1,2019-04-02T07:15:00Z,29.1144,-90.1840,1.0,6.8,316.0,14.0,'1111122,1111122,1111122' 
LUMCON,ioos:station:LUMCON:wisl1:1,2019-04-02T07:30:00Z,29.1144,-90.1840,1.0,8.1,310.0,13.6,'1111122,1111122,1111122' 
LUMCON,ioos:station:LUMCON:wisl1:1,2019-04-02T07:45:00Z,29.1144,-90.1840,1.0,8.6,311.0,13.0,'1111122,1111122,1111122' 
LUMCON,ioos:station:LUMCON:wisl1:1,2019-04-02T08:00:00Z,29.1144,-90.1840,1.0,7.2,312.0,12.7,'1111122,1111122,1111122' 
LUMCON,ioos:station:LUMCON:wisl1:1,2019-04-02T08:15:00Z,29.1144,-90.1840,1.0,4.9,318.0,12.4,'1111122,1111122,1111122' 
LUMCON,ioos:station:LUMCON:wisl1:1,2019-04-02T08:30:00Z,29.1144,-90.1840,1.0,4.7,326.0,12.2,'1111122,1111122,1111122' 
LUMCON,ioos:station:LUMCON:wisl1:1,2019-04-02T08:45:00Z,29.1144,-90.1840,1.0,5.1,327.0,12.1,'1111122,1111122,1111122' 
LUMCON,ioos:station:LUMCON:wisl1:1,2019-04-02T09:00:00Z,29.1144,-90.1840,1.0,6.7,324.0,12.1,'1111122,1111122,1111122' 
LUMCON,ioos:station:LUMCON:wisl1:1,2019-04-02T09:15:00Z,29.1144,-90.1840,1.0,7.7,326.0,12.1,'1111122,1111122,1111122' 
LUMCON,ioos:station:LUMCON:wisl1:1,2019-04-02T09:30:00Z,29.1144,-90.1840,1.0,5.6,330.0,11.9,'1111122,1111122,1111122' 
LUMCON,ioos:station:LUMCON:wisl1:1,2019-04-02T09:45:00Z,29.1144,-90.1840,1.0,6.3,328.0,11.9,'1111122,1111122,1111122' 
LUMCON,ioos:station:LUMCON:wisl1:1,2019-04-02T10:00:00Z,29.1144,-90.1840,1.0,6.5,321.0,11.9,'1111122,1111122,1111122' 
LUMCON,ioos:station:LUMCON:wisl1:1,2019-04-02T10:15:00Z,29.1144,-90.1840,1.0,7.2,326.0,11.9,'1111122,1111122,1111122' 
LUMCON,ioos:station:LUMCON:wisl1:1,2019-04-02T10:30:00Z,29.1144,-90.1840,1.0,4.0,327.0,12.1,'1111122,1111122,1111122' 
LUMCON,ioos:station:LUMCON:wisl1:1,2019-04-02T10:45:00Z,29.1144,-90.1840,1.0,5.8,320.0,11.9,'1111122,1111122,1111122' 
LUMCON,ioos:station:LUMCON:wisl1:1,2019-04-02T11:00:00Z,29.1144,-90.1840,1.0,5.0,327.0,12.0,'1111122,1111122,1111122' 
LUMCON,ioos:station:LUMCON:wisl1:1,2019-04-02T11:15:00Z,29.1144,-90.1840,1.0,6.6,350.0,12.0,'1111122,1111122,1111122' 
LUMCON,ioos:station:LUMCON:wisl1:1,2019-04-02T11:30:00Z,29.1144,-90.1840,1.0,6.6,341.0,12.0,'1111122,1111122,1111122' 
LUMCON,ioos:station:LUMCON:wisl1:1,2019-04-02T11:45:00Z,29.1144,-90.1840,1.0,4.3,339.0,11.9,'1111122,1111122,1111122' 
LUMCON,ioos:station:LUMCON:wisl1:1,2019-04-02T12:00:00Z,29.1144,-90.1840,1.0,4.4,340.0,11.9,'1111122,1111122,1111122' 
LUMCON,ioos:station:LUMCON:wisl1:1,2019-04-02T12:15:00Z,29.1144,-90.1840,1.0,5.3,341.0,11.9,'1111122,1111122,1111122' 
LUMCON,ioos:station:LUMCON:wisl1:1,2019-04-02T12:30:00Z,29.1144,-90.1840,1.0,4.5,356.0,12.0,'1111122,1111122,1111122' 
LUMCON,ioos:station:LUMCON:wisl1:1,2019-04-02T12:45:00Z,29.1144,-90.1840,1.0,6.0,357.0,12.2,'1111122,1111122,1111122' 
LUMCON,ioos:station:LUMCON:wisl1:1,2019-04-02T13:00:00Z,29.1144,-90.1840,1.0,4.5,322.0,12.2,'1111122,1111122,1111122' 
LUMCON,ioos:station:LUMCON:wisl1:1,2019-04-02T13:15:00Z,29.1144,-90.1840,1.0,4.0,347.0,12.4,'1111122,1111122,1111122' 
LUMCON,ioos:station:LUMCON:wisl1:1,2019-04-02T13:30:00Z,29.1144,-90.1840,1.0,4.7,1.0,12.6,'1111122,1111122,1111122' 
LUMCON,ioos:station:LUMCON:wisl1:1,2019-04-02T13:45:00Z,29.1144,-90.1840,1.0,5.5,343.0,12.7,'1111122,1111122,1111122' 
LUMCON,ioos:station:LUMCON:wisl1:1,2019-04-02T14:00:00Z,29.1144,-90.1840,1.0,5.5,340.0,12.8,'1111122,1111122,1111122' 
LUMCON,ioos:station:LUMCON:wisl1:1,2019-04-02T14:15:00Z,29.1144,-90.1840,1.0,3.9,357.0,13.1,'1111122,1111122,1111122' 
LUMCON,ioos:station:LUMCON:wisl1:1,2019-04-02T14:30:00Z,29.1144,-90.1840,1.0,5.4,347.0,13.2,'1111122,1111122,1111122' 
LUMCON,ioos:station:LUMCON:wisl1:1,2019-04-02T14:45:00Z,29.1144,-90.1840,1.0,5.1,1.0,13.1,'1111122,1111122,1111122' 
LUMCON,ioos:station:LUMCON:wisl1:1,2019-04-02T15:00:00Z,29.1144,-90.1840,1.0,5.6,348.0,13.3,'1111122,1111122,1111122' 
LUMCON,ioos:station:LUMCON:wisl1:1,2019-04-02T15:15:00Z,29.1144,-90.1840,1.0,5.7,355.0,13.6,'1111122,1111122,1111122' 
LUMCON,ioos:station:LUMCON:wisl1:1,2019-04-02T15:30:00Z,29.1144,-90.1840,1.0,4.9,344.0,14.0,'1111122,1111122,1111122' 
LUMCON,ioos:station:LUMCON:wisl1:1,2019-04-02T15:45:00Z,29.1144,-90.1840,1.0,5.4,350.0,14.2,'1111122,1111122,1111122' 
LUMCON,ioos:station:LUMCON:wisl1:1,2019-04-02T16:00:00Z,29.1144,-90.1840,1.0,5.6,337.0,14.1,'1111122,1111122,1111122' 
LUMCON,ioos:station:LUMCON:wisl1:1,2019-04-02T16:15:00Z,29.1144,-90.1840,1.0,4.7,351.0,14.2,'1111122,1111122,1111122' 
LUMCON,ioos:station:LUMCON:wisl1:1,2019-04-02T16:30:00Z,29.1144,-90.1840,1.0,6.1,345.0,14.5,'1111122,1111122,1111122' 
LUMCON,ioos:station:LUMCON:wisl1:1,2019-04-02T16:45:00Z,29.1144,-90.1840,1.0,2.9,338.0,14.6,'1111122,1111122,1111122' 
LUMCON,ioos:station:LUMCON:wisl1:1,2019-04-02T17:00:00Z,29.1144,-90.1840,1.0,4.6,356.0,15.1,'1111122,1111122,1111122' 
LUMCON,ioos:station:LUMCON:wisl1:1,2019-04-02T17:15:00Z,29.1144,-90.1840,1.0,4.9,342.0,15.2,'1111122,1111122,1111122' 
LUMCON,ioos:station:LUMCON:wisl1:1,2019-04-02T17:30:00Z,29.1144,-90.1840,1.0,3.4,326.0,15.3,'1111122,1111122,1111122' 
LUMCON,ioos:station:LUMCON:wisl1:1,2019-04-02T17:45:00Z,29.1144,-90.1840,1.0,3.3,34.0,15.2,'1111122,1111122,1111122' 
LUMCON,ioos:station:LUMCON:wisl1:1,2019-04-02T18:00:00Z,29.1144,-90.1840,1.0,4.3,50.0,15.3,'1111122,1111122,1111122' 
LUMCON,ioos:station:LUMCON:wisl1:1,2019-04-02T18:15:00Z,29.1144,-90.1840,1.0,2.6,350.0,15.4,'1111122,1111122,1111122' 
LUMCON,ioos:station:LUMCON:wisl1:1,2019-04-02T18:30:00Z,29.1144,-90.1840,1.0,1.1,330.0,15.5,'1111122,1111122,1111122' 
LUMCON,ioos:station:LUMCON:wisl1:1,2019-04-02T18:45:00Z,29.1144,-90.1840,1.0,3.3,4.0,15.6,'1111122,1111122,1111122' 
LUMCON,ioos:station:LUMCON:wisl1:1,2019-04-02T19:00:00Z,29.1144,-90.1840,1.0,1.8,348.0,15.7,'1111122,1111122,1111122' 
LUMCON,ioos:station:LUMCON:wisl1:1,2019-04-02T19:15:00Z,29.1144,-90.1840,1.0,1.7,18.0,15.9,'1111122,1111122,1111122' 
LUMCON,ioos:station:LUMCON:wisl1:1,2019-04-02T19:30:00Z,29.1144,-90.1840,1.0,2.6,52.0,16.1,'1111122,1111122,1111122' 
LUMCON,ioos:station:LUMCON:wisl1:1,2019-04-02T19:45:00Z,29.1144,-90.1840,1.0,3.5,69.0,16.2,'1111122,1111122,1111122' 
LUMCON,ioos:station:LUMCON:wisl1:1,2019-04-02T20:00:00Z,29.1144,-90.1840,1.0,1.4,344.0,16.4,'1111122,1111122,1111122' 
LUMCON,ioos:station:LUMCON:wisl1:1,2019-04-02T20:15:00Z,29.1144,-90.1840,1.0,3.1,302.0,16.6,'1111122,1111122,1111122' 
LUMCON,ioos:station:LUMCON:wisl1:1,2019-04-02T20:30:00Z,29.1144,-90.1840,1.0,2.4,56.0,16.7,'1111122,1111122,1111122' 
LUMCON,ioos:station:LUMCON:wisl1:1,2019-04-02T20:45:00Z,29.1144,-90.1840,1.0,2.7,345.0,16.7,'1111122,1111122,1111122' 
LUMCON,ioos:station:LUMCON:wisl1:1,2019-04-02T21:00:00Z,29.1144,-90.1840,1.0,2.6,22.0,16.9,'1111122,1111122,1111122' 
LUMCON,ioos:station:LUMCON:wisl1:1,2019-04-02T21:15:00Z,29.1144,-90.1840,1.0,3.1,353.0,17.1,'1111122,1111122,1111122' 
LUMCON,ioos:station:LUMCON:wisl1:1,2019-04-02T21:30:00Z,29.1144,-90.1840,1.0,3.9,61.0,16.6,'1111122,1111122,1111122' 
LUMCON,ioos:station:LUMCON:wisl1:1,2019-04-02T21:45:00Z,29.1144,-90.1840,1.0,2.8,82.0,16.9,'1111122,1111122,1111122' 
LUMCON,ioos:station:LUMCON:wisl1:1,2019-04-02T22:00:00Z,29.1144,-90.1840,1.0,3.0,106.0,17.0,'1111122,1111122,1111122' 
LUMCON,ioos:station:LUMCON:wisl1:1,2019-04-02T22:15:00Z,29.1144,-90.1840,1.0,4.0,141.0,16.3,'1111122,1111122,1111122' 
LUMCON,ioos:station:LUMCON:wisl1:1,2019-04-02T22:30:00Z,29.1144,-90.1840,1.0,3.9,160.0,16.0,'1111122,1111122,1111122' 
LUMCON,ioos:station:LUMCON:wisl1:1,2019-04-02T22:45:00Z,29.1144,-90.1840,1.0,2.4,154.0,16.0,'1111122,1111122,1111122' 
LUMCON,ioos:station:LUMCON:wisl1:1,2019-04-02T23:00:00Z,29.1144,-90.1840,1.0,2.7,161.0,16.1,'1111122,1111122,1111122' 
LUMCON,ioos:station:LUMCON:wisl1:1,2019-04-02T23:15:00Z,29.1144,-90.1840,1.0,2.5,131.0,16.1,'1111122,1111122,1111122' 
LUMCON,ioos:station:LUMCON:wisl1:1,2019-04-02T23:30:00Z,29.1144,-90.1840,1.0,2.0,135.0,16.1,'1111122,1111122,1111122' 
LUMCON,ioos:station:LUMCON:wisl1:1,2019-04-02T23:45:00Z,29.1144,-90.1840,1.0,1.5,134.0,16.0,'1111122,1111122,1111122' 
LUMCON,ioos:station:LUMCON:wisl1:1,2019-04-03T00:00:00Z,29.1144,-90.1840,1.0,1.7,147.0,16.0,'1111122,1111122,1111122' 
LUMCON,ioos:station:LUMCON:wisl1:1,2019-04-03T00:15:00Z,29.1144,-90.1840,1.0,1.6,147.0,15.9,'1111122,1111122,1111122' 
LUMCON,ioos:station:LUMCON:wisl1:1,2019-04-03T00:30:00Z,29.1144,-90.1840,1.0,1.7,145.0,15.9,'1111122,1111122,1111122' 
LUMCON,ioos:station:LUMCON:wisl1:1,2019-04-03T00:45:00Z,29.1144,-90.1840,1.0,1.0,151.0,15.9,'1111122,1111122,1111122' 
LUMCON,ioos:station:LUMCON:wisl1:1,2019-04-03T01:00:00Z,29.1144,-90.1840,1.0,2.2,143.0,15.9,'1111122,1111122,1111122' 
LUMCON,ioos:station:LUMCON:wisl1:1,2019-04-03T01:15:00Z,29.1144,-90.1840,1.0,1.5,109.0,16.0,'1111122,1111122,1111122' 
LUMCON,ioos:station:LUMCON:wisl1:1,2019-04-03T01:30:00Z,29.1144,-90.1840,1.0,2.4,105.0,16.0,'1111122,1111122,1111122' 
LUMCON,ioos:station:LUMCON:wisl1:1,2019-04-03T01:45:00Z,29.1144,-90.1840,1.0,2.3,102.0,16.0,'1111122,1111122,1111122' 
LUMCON,ioos:station:LUMCON:wisl1:1,2019-04-03T02:00:00Z,29.1144,-90.1840,1.0,1.9,104.0,16.0,'1111122,1111122,1111122' 